Southport, NC

7:28 PM EDT on June 22, 2017 (GMT -0400)
Brunswick County

Weather History for KSUT - January, 2014

Change the Weather History Date:

Saturday, January 11, 2014

  Actual Average (KILM) Record (KILM)
Temperature  
Mean Temperature 61 °F -  
Max Temperature 69 °F 54 °F 80 °F (1974)
Min Temperature 54 °F 34 °F 8 °F (1982)
Degree Days  
Heating Degree Days 4    
Growing Degree Days 11 (Base 50)    
Moisture  
Dew Point 62 °F    
Average Humidity 95    
Maximum Humidity 100    
Minimum Humidity 86    
Precipitation  
Precipitation 0.26 in - - ()
Sea Level Pressure  
Sea Level Pressure 29.88 in    
Wind  
Wind Speed 9 mph (SSW)    
Max Wind Speed 17 mph    
Max Gust Speed 24 mph    
Visibility 5 miles    
Events Rain    
Averages and records for this station are not official NWS values.
T = Trace of Precipitation, MM = Missing Value Source: NWS Daily Summary

Daily Weather History Graph

Daily Weather History Graph

Search for Another Location

Airport or City:

Trip Planner

Search our weather history database for the weather conditions in past years. The results will help you decide how hot, cold, wet, or windy it might be!

Date:

Astronomy

Jan. 11, 2014 Rise Set
Actual Time 7:18 AM EST 5:22 PM EST
Civil Twilight 6:50 AM EST 5:50 PM EST
Nautical Twilight 6:19 AM EST 6:20 PM EST
Astronomical Twilight 5:49 AM EST 6:51 PM EST
Moon 2:03 PM EST (1/11) 3:23 AM EST (1/11)
Length of Visible Light 10h 59m
Length of Day
10h 04m
Waxing Gibbous, 83% of the Moon is Illuminated
Jan 11
Waxing Gibbous
Jan 15
Full
Jan 24
Last Quarter
Jan 30
New
Feb 6
First Quarter

Hourly Weather History & Observations

Time (EST) Temp. Dew Point Humidity Pressure Visibility Wind Dir Wind Speed Gust Speed Precip Events Conditions
12:15 AM 63.5 °F 62.6 °F 97% 30.11 in 7.0 mi Calm Calm - N/A   Overcast
12:35 AM 63.5 °F 62.6 °F 97% 30.10 in 5.0 mi SSW 6.9 mph - N/A   Overcast
12:55 AM 63.1 °F 62.4 °F 97% 30.08 in 5.0 mi South 4.6 mph - N/A   Mostly Cloudy
1:15 AM 62.8 °F 61.9 °F 97% 30.08 in 7.0 mi South 8.1 mph - N/A   Scattered Clouds
1:35 AM 61.9 °F 61.0 °F 97% 30.07 in 5.0 mi South 6.9 mph - N/A   Scattered Clouds
1:55 AM 62.4 °F 61.3 °F 96% 30.06 in 7.0 mi South 11.5 mph 17.3 mph N/A   Clear
2:15 AM 65.7 °F 61.3 °F 86% 30.06 in 10.0 mi South 10.4 mph 19.6 mph N/A   Clear
2:35 AM 65.3 °F 63.3 °F 93% 30.06 in 7.0 mi South 10.4 mph 19.6 mph N/A   Clear
2:55 AM 63.9 °F 62.6 °F 96% 30.06 in 7.0 mi South 9.2 mph - N/A   Clear
3:15 AM 63.5 °F 62.1 °F 95% 30.05 in 7.0 mi South 9.2 mph - N/A   Mostly Cloudy
3:35 AM 64.4 °F 63.0 °F 95% 30.03 in 7.0 mi South 8.1 mph - N/A   Scattered Clouds
3:55 AM 65.3 °F 63.9 °F 95% 30.02 in 7.0 mi South 9.2 mph 16.1 mph N/A   Clear
4:15 AM 65.5 °F 64.0 °F 95% 30.01 in 7.0 mi South 10.4 mph 18.4 mph N/A   Scattered Clouds
4:35 AM 65.3 °F 63.5 °F 94% 30.01 in 7.0 mi South 9.2 mph - N/A   Scattered Clouds
4:55 AM 65.3 °F 63.5 °F 94% 30.00 in 7.0 mi South 8.1 mph - N/A   Mostly Cloudy
5:15 AM 65.1 °F 63.1 °F 93% 30.00 in 7.0 mi South 8.1 mph - N/A   Overcast
5:35 AM 65.3 °F 63.5 °F 94% 29.99 in 7.0 mi South 9.2 mph - N/A   Overcast
5:55 AM 62.8 °F 61.2 °F 94% 30.00 in 5.0 mi SW 10.4 mph 16.1 mph N/A Rain Light Rain
6:15 AM 63.5 °F 62.8 °F 97% 29.99 in 4.0 mi SSW 8.1 mph - 0.02 in Rain Light Rain
6:35 AM 64.2 °F 63.3 °F 97% 30.00 in 5.0 mi SSW 6.9 mph - 0.02 in   Overcast
6:55 AM 63.5 °F 62.8 °F 97% 30.00 in 4.0 mi South 8.1 mph - 0.03 in   Overcast
7:15 AM 63.5 °F 63.0 °F 98% 29.99 in 3.0 mi South 5.8 mph - N/A   Overcast
7:35 AM 64.2 °F 63.5 °F 98% 29.99 in 4.0 mi South 6.9 mph - N/A   Overcast
7:55 AM 64.0 °F 63.5 °F 98% 29.98 in 3.0 mi South 6.9 mph - N/A   Overcast
8:15 AM 64.8 °F 64.2 °F 98% 29.98 in 4.0 mi SSW 9.2 mph - N/A   Overcast
8:35 AM 64.9 °F 64.4 °F 98% 29.97 in 5.0 mi SSW 9.2 mph - N/A   Overcast
8:55 AM 66.2 °F 64.8 °F 95% 29.98 in 7.0 mi SSW 10.4 mph 17.3 mph N/A   Mostly Cloudy
9:15 AM 65.8 °F 64.8 °F 96% 29.97 in 5.0 mi South 10.4 mph - N/A   Overcast
9:35 AM 67.1 °F 65.3 °F 94% 29.96 in 5.0 mi SSW 10.4 mph 16.1 mph N/A   Overcast
9:55 AM 66.7 °F 65.3 °F 95% 29.96 in 4.0 mi South 9.2 mph 17.3 mph N/A   Mostly Cloudy
10:15 AM 66.4 °F 64.8 °F 95% 29.96 in 5.0 mi South 6.9 mph 16.1 mph N/A   Overcast
10:35 AM 67.3 °F 65.5 °F 94% 29.95 in 7.0 mi South 12.7 mph 17.3 mph N/A   Overcast
10:55 AM 68.0 °F 65.3 °F 91% 29.93 in 7.0 mi SSW 12.7 mph 21.9 mph N/A   Overcast
11:15 AM 68.9 °F 65.3 °F 88% 29.92 in 7.0 mi SSW 11.5 mph 18.4 mph N/A   Scattered Clouds
11:35 AM 68.0 °F 64.8 °F 89% 29.90 in 5.0 mi South 11.5 mph 18.4 mph N/A   Mostly Cloudy
11:55 AM 66.2 °F 64.0 °F 93% 29.88 in 5.0 mi South 10.4 mph 19.6 mph N/A   Overcast
12:15 PM 64.6 °F 62.6 °F 93% 29.86 in 5.0 mi SSW 9.2 mph - N/A   Overcast
12:35 PM 66.4 °F 63.5 °F 90% 29.85 in 5.0 mi SSW 11.5 mph 17.3 mph N/A   Overcast
12:55 PM 68.9 °F 64.8 °F 87% 29.82 in 7.0 mi SSW 12.7 mph 20.7 mph N/A   Scattered Clouds
1:15 PM 67.1 °F 63.7 °F 89% 29.81 in 5.0 mi SSW 12.7 mph 19.6 mph N/A   Mostly Cloudy
1:35 PM 68.7 °F 64.6 °F 87% 29.80 in 7.0 mi SSW 10.4 mph 18.4 mph N/A   Mostly Cloudy
1:55 PM 68.0 °F 64.4 °F 88% 29.79 in 7.0 mi SSW 12.7 mph 20.7 mph N/A   Mostly Cloudy
2:15 PM 67.1 °F 64.0 °F 90% 29.78 in 5.0 mi SSW 12.7 mph 19.6 mph N/A   Overcast
2:35 PM 66.2 °F 63.5 °F 91% 29.77 in 7.0 mi SSW 11.5 mph 20.7 mph N/A   Mostly Cloudy
2:55 PM 65.3 °F 62.6 °F 91% 29.78 in 5.0 mi SSW 11.5 mph 18.4 mph N/A   Overcast
3:15 PM 65.3 °F 63.5 °F 94% 29.77 in 5.0 mi SW 16.1 mph 23.0 mph N/A   Overcast
3:35 PM 63.5 °F 62.2 °F 96% 29.77 in 1.5 mi SSW 12.7 mph 21.9 mph N/A   Overcast
3:55 PM 63.5 °F 62.6 °F 97% 29.77 in 4.0 mi SW 13.8 mph 19.6 mph N/A   Overcast
4:15 PM 63.0 °F 61.5 °F 95% 29.77 in 4.0 mi SW 12.7 mph - N/A   Overcast
4:35 PM 61.9 °F 60.8 °F 96% 29.77 in 3.0 mi SW 11.5 mph 17.3 mph N/A   Overcast
4:55 PM 61.9 °F 61.2 °F 97% 29.76 in 1.5 mi WSW 11.5 mph - N/A   Overcast
5:15 PM 61.0 °F 60.3 °F 97% 29.76 in 2.5 mi WSW 12.7 mph - N/A   Overcast
5:35 PM 62.4 °F 61.7 °F 97% 29.75 in 3.0 mi SW 13.8 mph 23.0 mph N/A   Overcast
5:55 PM 61.5 °F 61.0 °F 98% 29.75 in 1.5 mi SW 15.0 mph 20.7 mph N/A   Overcast
6:15 PM 60.3 °F 59.9 °F 99% 29.74 in 0.8 mi SW 11.5 mph - N/A   Overcast
6:35 PM 60.6 °F 60.1 °F 98% 29.75 in 2.0 mi West 15.0 mph - N/A Rain Rain
6:55 PM 60.8 °F 59.4 °F 95% 29.76 in 2.0 mi SW 5.8 mph 21.9 mph 0.16 in Rain Heavy Rain
7:15 PM 60.1 °F 59.0 °F 96% 29.75 in 3.0 mi West 9.2 mph - 0.03 in Rain Rain
7:35 PM 58.5 °F 57.6 °F 97% 29.73 in 5.0 mi West 9.2 mph - 0.05 in Rain Rain
7:55 PM 58.6 °F 57.7 °F 97% 29.72 in 5.0 mi SW 8.1 mph - 0.07 in Rain Light Rain
8:15 PM 57.7 °F 57.2 °F 98% 29.69 in 5.0 mi WSW 6.9 mph - N/A Rain Light Rain
8:35 PM 57.6 °F 56.7 °F 97% 29.69 in 5.0 mi WSW 11.5 mph - N/A   Mostly Cloudy
8:55 PM 57.9 °F 56.8 °F 96% 29.71 in 5.0 mi WSW 17.3 mph 24.2 mph N/A   Mostly Cloudy
9:15 PM 56.8 °F 56.1 °F 97% 29.72 in 3.0 mi WSW 13.8 mph 20.7 mph N/A   Overcast
9:35 PM 55.9 °F 55.4 °F 98% 29.72 in 1.2 mi West 13.8 mph 18.4 mph N/A   Overcast
9:55 PM 55.6 °F 55.0 °F 98% 29.72 in 2.0 mi West 11.5 mph - N/A   Overcast
10:15 PM 55.4 °F 54.9 °F 98% 29.73 in 4.0 mi WSW 10.4 mph - N/A   Overcast
10:35 PM 54.7 °F 54.3 °F 99% 29.73 in 1.5 mi WSW 10.4 mph - N/A   Overcast
10:55 PM 54.0 °F 53.8 °F 99% 29.73 in 0.8 mi SW 5.8 mph - N/A   Overcast
11:15 PM 54.5 °F 54.5 °F 100% 29.74 in 1.5 mi WSW 6.9 mph - N/A   Overcast
11:35 PM 55.4 °F 55.4 °F 100% 29.75 in 4.0 mi WSW 6.9 mph - N/A   Overcast
11:55 PM 55.8 °F 55.6 °F 99% 29.75 in 5.0 mi WSW 10.4 mph - N/A   Overcast